FW8564 Weather Reports


time (UTC)temp
F
wind
direction
speed
knots
gust
knots
rain 1hr
in
rain 24hr
in
rain mn
in
humidity
%
barometer
mb
20260507190512 60 248 0.0 0.0 0.00 0.00 0.00 83 1010.8
20260507190003 60 248 0.0 0.0 0.00 0.00 0.00 83 1011.0
20260507185459 60 135 0.0 0.0 0.00 0.00 0.00 83 1010.8
20260507184941 60 135 0.0 0.0 0.00 0.00 0.00 83 1010.9
20260507184431 60 135 0.0 0.0 0.00 0.00 0.00 82 1010.6
20260507183921 60 135 0.0 0.0 0.00 0.00 0.00 81 1010.7
20260507183411 60 135 0.0 0.0 0.00 0.00 0.00 81 1010.7
20260507181837 61 113 0.0 0.0 0.00 0.00 0.00 80 1010.5
20260507180821 62 158 0.0 0.0 0.00 0.00 0.00 78 1010.7
20260507180310 62 158 0.0 0.0 0.00 0.00 0.00 77 1010.5
20260507175800 62 113 0.0 0.0 0.00 0.00 0.00 77 1010.3
20260507175251 62 113 0.0 0.0 0.00 0.00 0.00 77 1010.5
20260507174740 62 135 0.0 0.0 0.00 0.00 0.00 77 1010.7
20260507174229 62 113 0.0 0.0 0.00 0.00 0.00 76 1010.8
20260507173719 62 113 0.0 0.0 0.00 0.00 0.00 76 1010.5
20260507172700 63 135 0.0 0.0 0.00 0.00 0.00 74 1010.6
20260507172149 63 113 0.0 0.0 0.00 0.00 0.00 74 1010.4
20260507171639 63 135 0.0 0.0 0.00 0.00 0.00 72 1010.5
20260507170619 64 135 0.0 0.0 0.00 0.00 0.00 68 1010.5
20260507170109 64 113 0.0 0.0 0.00 0.00 0.00 63 1010.6
20260507165601 64 158 0.0 0.0 0.00 0.00 0.00 65 1010.5
20260507165049 64 203 0.0 0.0 0.00 0.00 0.00 64 1010.6
20260507164539 65 113 0.0 0.0 0.00 0.00 0.00 62 1010.5
20260507164028 65 158 0.0 0.0 0.00 0.00 0.00 63 1010.6
20260507163008 65 135 0.0 0.0 0.00 0.00 0.00 61 1010.7
20260507162458 65 158 0.0 0.0 0.00 0.00 0.00 60 1010.6
20260507161947 66 180 0.0 0.0 0.00 0.00 0.00 61 1010.8
20260507161437 65 113 0.0 0.0 0.00 0.00 0.00 61 1010.6
20260507160928 65 158 0.0 0.0 0.00 0.00 0.00 61 1010.6
20260507160418 65 135 0.0 0.0 0.00 0.00 0.00 61 1010.7
20260507155907 65 158 0.0 0.0 0.00 0.00 0.00 61 1010.6
20260507154847 65 135 0.0 0.0 0.00 0.00 0.00 59 1010.6
20260507154338 65 135 0.0 0.0 0.00 0.00 0.00 60 1010.7
20260507152807 64 135 0.0 0.0 0.00 0.00 0.00 63 1010.7
20260507152256 64 135 0.0 0.0 0.00 0.00 0.00 66 1010.8
20260507151746 65 158 0.0 0.0 0.00 0.00 0.00 64 1010.7
20260507151237 65 113 0.0 0.0 0.00 0.00 0.00 64 1010.9
20260507150726 66 135 0.0 0.0 0.00 0.00 0.00 65 1010.8
20260507145706 66 158 0.0 0.0 0.00 0.00 0.00 65 1010.7
20260507145158 65 113 0.0 0.0 0.00 0.00 0.00 65 1010.9
20260507144646 65 158 0.0 0.0 0.00 0.00 0.00 66 1010.7
20260507144136 65 158 0.0 0.0 0.00 0.00 0.00 65 1010.8
20260507143626 65 158 0.0 0.0 0.00 0.00 0.00 67 1011.0
20260507142606 66 135 0.0 0.0 0.00 0.00 0.00 65 1011.0
20260507142055 65 135 0.0 0.0 0.00 0.00 0.00 65 1010.9
20260507141545 65 113 0.0 0.0 0.00 0.00 0.00 66 1011.1
20260507140525 66 158 0.0 0.0 0.00 0.00 0.00 64 1011.1
20260507140015 67 135 0.0 0.0 0.00 0.00 0.00 65 1011.0
20260507135510 65 113 0.0 0.0 0.00 0.00 0.00 64 1011.1
20260507134954 65 113 0.0 0.0 0.00 0.00 0.00 67 1011.4
20260507134444 65 113 0.0 0.0 0.00 0.00 0.00 67 1011.5
20260507133935 66 180 0.0 0.0 0.00 0.00 0.00 66 1011.3
20260507133424 65 113 0.0 0.0 0.00 0.00 0.00 64 1011.5
20260507132914 65 113 0.0 0.0 0.00 0.00 0.00 65 1011.4
20260507130833 67 135 0.0 0.0 0.00 0.00 0.00 63 1011.4
20260507130324 67 113 0.0 0.0 0.00 0.00 0.00 63 1011.2
20260507125813 67 113 0.0 0.0 0.00 0.00 0.00 62 1011.4
20260507125306 68 158 0.0 0.0 0.00 0.00 0.00 58 1011.6
20260507124243 68 135 0.0 0.0 0.00 0.00 0.00 61 1011.3
20260507123733 68 135 0.0 0.0 0.00 0.00 0.00 62 1011.3
20260507123223 67 113 0.0 0.0 0.00 0.00 0.00 62 1011.5
20260507122714 68 180 0.0 0.0 0.00 0.00 0.00 64 1011.2
20260507122203 66 113 0.0 0.0 0.00 0.00 0.00 65 1011.3
20260507121652 67 135 0.0 0.0 0.00 0.00 0.00 66 1011.5
20260507121142 67 158 0.0 0.0 0.00 0.00 0.00 65 1011.5
20260507120633 68 158 0.0 0.0 0.00 0.00 0.00 65 1011.2
20260507120125 68 113 0.0 0.0 0.00 0.00 0.00 67 1011.4
20260507115612 68 135 0.0 0.0 0.00 0.00 0.00 67 1011.3
20260507115104 67 113 0.0 0.0 0.00 0.00 0.00 68 1011.6
20260507114552 67 68 0.0 0.0 0.00 0.00 0.00 69 1011.5
20260507114042 68 135 0.0 0.0 0.00 0.00 0.00 68 1011.4
20260507113531 67 113 0.0 0.0 0.00 0.00 0.00 69 1011.6
20260507113023 67 113 0.0 0.0 0.00 0.00 0.00 68 1011.7
20260507112512 67 113 0.0 0.0 0.00 0.00 0.00 70 1011.8
20260507112002 66 113 0.0 0.0 0.00 0.00 0.00 70 1011.8
20260507111451 66 113 0.0 0.0 0.00 0.00 0.00 70 1011.9
20260507110941 67 203 0.0 0.0 0.00 0.00 0.00 68 1011.7
20260507110431 67 135 0.0 0.0 0.00 0.00 0.00 68 1011.9
20260507105921 68 113 0.0 0.0 0.00 0.00 0.00 70 1011.6
20260507105411 67 135 0.0 0.0 0.00 0.00 0.00 68 1011.7
20260507104351 66 135 0.0 0.0 0.00 0.00 0.00 67 1012.0
20260507103841 67 113 0.0 0.0 0.00 0.00 0.00 68 1011.8
20260507103331 68 135 0.0 0.0 0.00 0.00 0.00 68 1012.1
20260507102821 67 180 0.0 0.0 0.00 0.00 0.00 70 1012.1
20260507102310 65 135 0.0 0.0 0.00 0.00 0.00 68 1011.9
20260507101250 65 315 0.0 0.0 0.00 0.00 0.00 70 1012.2
20260507100740 65 248 0.0 0.0 0.00 0.00 0.00 71 1012.2
20260507100230 67 293 0.0 0.0 0.00 0.00 0.00 69 1012.3
20260507095209 67 225 0.0 0.0 0.00 0.00 0.00 70 1012.2
20260507094659 65 248 0.0 0.0 0.00 0.00 0.00 70 1012.3
20260507093639 66 203 0.0 0.0 0.00 0.00 0.00 69 1012.2
20260507093129 67 248 0.0 0.0 0.00 0.00 0.00 71 1012.3
20260507092619 65 180 0.0 0.0 0.00 0.00 0.00 70 1012.1
20260507092109 66 135 0.0 0.0 0.00 0.00 0.00 71 1012.2
20260507091559 64 90 0.0 0.0 0.00 0.00 0.00 72 1012.2
20260507091048 64 338 0.0 0.0 0.00 0.00 0.00 72 1012.1
20260507090538 64 90 0.0 0.0 0.00 0.00 0.00 72 1012.2
20260507090029 64 90 0.0 0.0 0.00 0.00 0.00 72 1012.1
20260507085518 64 135 0.0 0.0 0.00 0.00 0.00 70 1012.2
20260507085009 65 158 0.0 0.0 0.00 0.00 0.00 72 1012.1
20260507084458 64 158 0.0 0.0 0.00 0.00 0.00 73 1012.2
20260507083437 64 158 0.0 0.0 0.00 0.00 0.00 73 1012.6
20260507082928 63 180 0.0 0.0 0.00 0.00 0.00 74 1012.5
20260507082418 62 270 0.0 0.0 0.00 0.00 0.00 75 1012.7
20260507081907 62 293 0.0 0.0 0.00 0.00 0.00 77 1012.6
20260507081357 63 180 0.0 0.0 0.00 0.00 0.00 78 1012.6
20260507080847 62 180 0.0 0.0 0.00 0.00 0.00 77 1012.7
20260507080337 60 248 0.0 0.0 0.00 0.00 0.00 77 1012.5
20260507075827 61 225 0.0 0.0 0.00 0.00 0.00 81 1012.6
20260507075317 59 248 0.0 0.0 0.00 0.00 0.00 83 1012.6
20260507074808 58 270 0.0 0.0 0.00 0.00 0.00 87 1012.6
20260507074257 58 270 0.0 0.0 0.00 0.00 0.00 90 1012.6
20260507073747 57 248 0.0 0.0 0.00 0.00 0.00 93 1012.4
20260507073236 58 315 0.0 0.0 0.00 0.00 0.00 96 1012.6
20260507072727 57 338 0.0 0.0 0.00 0.00 0.00 96 1012.5
20260507072216 56 338 0.0 0.0 0.00 0.00 0.00 96 1012.5
20260507071706 55 338 0.0 0.0 0.00 0.00 0.00 96 1012.4
20260507071156 56 23 0.0 0.0 0.00 0.00 0.00 97 1012.7
20260507065116 55 270 0.0 0.0 0.00 0.00 0.00 97 1012.6
20260507064056 55 270 0.0 0.0 0.00 0.00 0.00 97 1012.5
20260507063544 54 270 0.0 0.0 0.00 0.00 0.00 97 1012.4
20260507063035 53 270 0.0 0.0 0.00 0.00 0.00 97 1012.4
20260507062015 53 270 0.0 0.0 0.00 0.00 0.00 97 1012.2
20260507061511 53 293 0.0 0.0 0.00 0.00 0.00 97 1012.3
20260507060444 53 293 0.0 0.0 0.00 0.00 0.00 97 1012.1
20260507055934 53 315 0.0 0.0 0.00 0.00 0.00 97 1012.2
20260507055425 52 315 0.0 0.0 0.00 0.00 0.00 97 1012.0
20260507054914 52 315 0.0 0.0 0.00 0.00 0.00 97 1012.1
20260507054403 51 315 0.0 0.0 0.00 0.00 0.00 97 1012.3
20260507053854 50 293 0.0 0.0 0.00 0.00 0.00 97 1012.1
20260507053344 50 315 0.0 0.0 0.00 0.00 0.00 97 1012.1
20260507052326 50 293 0.0 0.0 0.00 0.00 0.00 97 1012.0
20260507051814 50 315 0.0 0.0 0.00 0.00 0.00 97 1012.0
20260507051304 49 315 0.0 0.0 0.00 0.00 0.00 97 1012.0
20260507050242 49 315 0.0 0.0 0.00 0.00 0.00 97 1011.9
20260507045733 50 270 0.0 0.0 0.00 0.00 0.00 98 1012.0
20260507044713 48 23 0.0 0.0 0.00 0.00 0.00 97 1011.9
20260507044203 48 23 0.0 0.0 0.00 0.00 0.00 97 1011.9
20260507043653 49 23 0.0 0.0 0.00 0.00 0.00 97 1011.9
20260507043143 49 23 0.0 0.0 0.00 0.00 0.00 97 1012.0
20260507042123 49 23 0.0 0.0 0.00 0.00 0.00 97 1012.1
20260507041615 49 23 0.0 0.0 0.00 0.00 0.00 97 1011.8
20260507041102 49 23 0.0 0.0 0.00 0.00 0.00 97 1011.8
20260507040552 50 338 0.0 0.0 0.00 0.00 0.00 97 1011.8
20260507040052 49 315 0.0 0.0 0.00 0.00 0.00 97 1011.8
20260507035022 52 315 0.0 0.0 0.00 0.00 0.00 97 1011.6
20260507034513 52 315 0.0 0.0 0.00 0.00 0.00 97 1011.5
20260507034001 51 315 0.0 0.0 0.00 0.00 0.00 97 1011.7
20260507033452 51 315 0.0 0.0 0.00 0.00 0.00 97 1011.7
20260507032941 51 293 0.0 0.0 0.00 0.00 0.00 97 1011.7
20260507031921 51 293 0.0 0.0 0.00 0.00 0.00 97 1011.6
20260507030901 51 315 0.0 0.0 0.00 0.00 0.00 97 1011.7
20260507030350 52 315 0.0 0.0 0.00 0.00 0.00 97 1011.7
20260507025840 52 315 0.0 0.0 0.00 0.00 0.00 97 1011.7
20260507025330 52 315 0.0 0.0 0.00 0.00 0.00 97 1011.5
20260507024820 53 315 0.0 0.0 0.00 0.00 0.00 97 1011.8
20260507024310 54 293 0.0 0.0 0.00 0.00 0.00 97 1011.7
20260507023801 53 270 0.0 0.0 0.00 0.00 0.00 97 1011.7
20260507023249 53 270 0.0 0.0 0.00 0.00 0.00 97 1011.7
20260507022740 53 293 0.0 0.0 0.00 0.00 0.00 97 1011.7
20260507022229 53 315 0.0 0.0 0.00 0.00 0.00 97 1011.6
20260507021719 53 315 0.0 0.0 0.00 0.00 0.00 97 1011.7
20260507021209 53 293 0.0 0.0 0.00 0.00 0.00 97 1011.6
20260507020150 54 315 0.0 0.0 0.00 0.00 0.00 97 1011.6
20260507015639 54 293 0.0 0.0 0.00 0.00 0.00 97 1011.7
20260507014619 54 270 0.0 0.0 0.00 0.00 0.00 97 1011.8
20260507014110 54 293 0.0 0.0 0.00 0.00 0.00 97 1011.9
20260507013558 54 293 0.0 0.0 0.00 0.00 0.00 97 1011.8
20260507013049 54 293 0.0 0.0 0.00 0.00 0.00 97 1011.9
20260507012538 54 293 0.0 0.0 0.00 0.00 0.00 97 1011.7
20260507011008 54 338 0.0 0.0 0.00 0.00 0.00 97 1012.1
20260507010458 54 338 0.0 0.0 0.00 0.00 0.00 97 1012.1
20260507005948 54 338 0.0 0.0 0.00 0.00 0.00 97 1012.1
20260507005438 54 338 0.0 0.0 0.00 0.00 0.00 97 1012.2
20260507004927 54 315 0.0 0.0 0.00 0.00 0.00 97 1012.3
20260507004417 54 315 0.0 0.0 0.00 0.00 0.00 97 1012.2
20260507003907 54 315 0.0 0.0 0.00 0.00 0.00 97 1012.3
20260507002848 53 315 0.0 0.0 0.00 0.00 0.00 97 1012.3
20260507002338 54 315 0.0 0.0 0.00 0.00 0.00 97 1012.5
20260507001827 54 315 0.0 0.0 0.00 0.00 0.00 97 1012.3
20260507001310 54 0.0 0.0 0.00 0.00 0.00 97
20260507000151 53 315 0.0 0.0 0.00 0.00 0.00 87 1012.3
20260506235955 54 315 0.0 0.0 0.00 0.71 0.00 97 1012.3
20260506235444 54 315 0.0 0.0 0.00 0.71 0.00 97 1012.6
20260506234934 53 315 0.0 0.0 0.00 0.71 0.00 97 1012.6
20260506234424 54 315 0.0 0.0 0.00 0.71 0.00 97 1012.6
20260506233913 54 315 0.0 0.0 0.00 0.71 0.00 97 1012.7
20260506233404 54 315 0.0 0.0 0.00 0.71 0.00 97 1012.6
20260506232854 54 315 0.0 0.0 0.00 0.71 0.00 97 1012.7
20260506232344 54 315 0.0 0.0 0.00 0.71 0.00 97 1012.5
20260506231833 54 315 0.0 0.0 0.00 0.71 0.00 97 1012.5
20260506231323 54 293 0.0 0.0 0.00 0.71 0.00 97 1012.6
20260506230813 54 338 0.0 0.0 0.00 0.71 0.00 97 1012.7
20260506230303 54 338 0.0 0.0 0.00 0.71 0.00 97 1012.8
20260506225753 54 45 0.0 0.0 0.00 0.71 0.00 97 1012.8
20260506225243 54 315 0.0 0.0 0.00 0.71 0.00 97 1012.7
20260506224732 54 315 0.0 0.0 0.00 0.71 0.00 97 1012.7
20260506223714 54 315 0.0 0.0 0.00 0.71 0.00 96 1012.6
20260506222653 55 315 0.0 0.0 0.00 0.71 0.00 96 1012.6
20260506222142 55 315 0.0 0.0 0.00 0.71 0.00 96 1012.7
20260506221632 55 315 0.0 0.0 0.00 0.71 0.00 96 1012.5
20260506221123 55 315 0.0 0.0 0.00 0.71 0.00 96 1012.6
20260506220612 55 315 0.0 0.0 0.00 0.71 0.00 96 1012.6
20260506215041 55 293 0.0 0.0 0.00 0.71 1.02 96 1012.4
20260506214532 55 315 0.0 0.0 0.00 0.71 1.02 96 1012.4
20260506214021 55 315 0.0 0.0 0.00 0.71 1.02 96 1012.5
20260506213511 55 315 0.0 0.0 0.00 0.71 1.02 96 1012.5
20260506213002 55 315 0.0 0.0 0.00 0.71 1.02 96 1012.5
20260506211431 55 0 0.0 0.0 0.00 0.71 1.02 96 1012.6
20260506210920 55 338 0.0 0.0 0.01 0.71 1.02 96 1012.4
20260506210410 55 270 0.0 0.0 0.01 0.71 1.02 96 1012.4
20260506205900 55 270 0.0 0.0 0.01 0.71 1.02 96 1012.4
20260506205350 55 315 0.0 0.0 0.02 0.71 1.02 96 1012.5
20260506204841 55 113 0.0 0.0 0.04 0.71 1.02 96 1012.6
20260506204329 55 113 0.0 0.0 0.04 0.71 1.02 96 1012.5
20260506203820 55 113 0.0 0.0 0.04 0.71 1.02 96 1012.6
20260506203309 55 113 0.0 0.0 0.04 0.71 1.02 96 1012.4
20260506202800 55 338 0.0 0.0 0.04 0.71 1.02 96 1012.3
20260506201739 55 293 0.0 0.0 0.04 0.71 1.02 96 1012.3
20260506201230 55 23 0.0 0.0 0.02 0.70 1.00 96 1012.5
20260506200719 55 338 0.0 0.0 0.02 0.70 1.00 96 1012.2
20260506200209 55 338 0.0 0.0 0.02 0.70 1.00 96 1012.0
20260506195659 55 338 0.0 0.0 0.01 0.69 0.99 96 1012.2
20260506194640 55 315 0.0 0.0 0.00 0.67 0.98 96 1012.0
20260506193618 55 338 0.0 0.0 0.00 0.67 0.98 96 1011.7
20260506193109 55 315 0.0 0.0 0.00 0.67 0.98 96 1011.6
20260506192048 55 315 0.0 0.0 0.00 0.67 0.98 96 1011.6
20260506191538 55 338 0.0 0.0 0.00 0.67 0.98 96 1011.6